timestamp,surface_pressure_avg,surface_temp_avg,battery_voltage,lat,long
2018-08-08 00:00:00+00:00,242.6581,18.21,13.05,47.84626,-54.09684
2018-08-08 00:10:00+00:00,236.8281,18.2,13.05,47.84626,-54.09684
2018-08-08 00:20:00+00:00,228.7398,18.2,13.05,47.84626,-54.09684
2018-08-08 00:30:00+00:00,225.6164,18.28,13.05,47.84626,-54.09684
2018-08-08 00:40:00+00:00,223.3815,18.3,13.13,47.84626,-54.09684
2018-08-08 00:50:00+00:00,217.9114,18.34,13.13,47.84626,-54.09684
2018-08-08 01:00:00+00:00,214.3514,18.4,13.05,47.84626,-54.09684
2018-08-08 01:10:00+00:00,214.5748,18.4,12.97,47.84626,-54.09684
2018-08-08 01:20:00+00:00,213.0948,18.45,13.05,47.84626,-54.09684
2018-08-08 01:30:00+00:00,210.5032,18.48,13.05,47.84626,-54.09684
2018-08-08 01:40:00+00:00,209.9881,18.5,13.05,47.84626,-54.09684
2018-08-08 01:50:00+00:00,210.6198,18.5,13.13,47.84626,-54.09684
2018-08-08 02:00:00+00:00,208.6331,18.48,13.05,47.84626,-54.09684
2018-08-08 02:10:00+00:00,209.1598,18.48,12.97,47.84626,-54.09684
2018-08-08 02:20:00+00:00,210.8248,18.49,13.05,47.84626,-54.09684
2018-08-08 02:30:00+00:00,208.8547,18.49,13.05,47.84626,-54.09684
2018-08-08 02:40:00+00:00,209.2698,18.47,13.05,47.84626,-54.09684
2018-08-08 02:50:00+00:00,209.0698,18.45,13.05,47.84626,-54.09684
2018-08-08 03:00:00+00:00,208.8281,18.4,13.05,47.84626,-54.09684
2018-08-08 03:10:00+00:00,209.6381,18.4,12.97,47.84626,-54.09684
2018-08-08 03:20:00+00:00,211.0531,18.4,13.05,47.84626,-54.09684
2018-08-08 03:30:00+00:00,213.1564,18.37,13.05,47.84626,-54.09684
2018-08-08 03:40:00+00:00,213.8548,18.34,13.05,47.84626,-54.09684
2018-08-08 03:50:00+00:00,214.6014,18.33,13.05,47.84626,-54.09684
2018-08-08 04:00:00+00:00,218.1648,18.3,12.97,47.84626,-54.09684
2018-08-08 04:10:00+00:00,221.1997,18.3,12.97,47.84626,-54.09684
2018-08-08 04:20:00+00:00,225.6148,18.33,12.97,47.84626,-54.09684
2018-08-08 04:30:00+00:00,232.1264,18.3,13.05,47.84626,-54.09684
2018-08-08 04:40:00+00:00,236.2747,18.3,13.05,47.84626,-54.09684
2018-08-08 04:50:00+00:00,239.3848,18.3,13.05,47.84626,-54.09684
2018-08-08 05:00:00+00:00,247.2181,18.2,12.97,47.84626,-54.09684
2018-08-08 05:10:00+00:00,256.1264,18.1,12.89,47.84626,-54.09684
2018-08-08 05:20:00+00:00,261.2414,18.1,12.97,47.84626,-54.09684
2018-08-08 05:30:00+00:00,265.4281,18.0,12.97,47.84626,-54.09684
2018-08-08 05:40:00+00:00,272.8064,17.9,12.97,47.84626,-54.09684
2018-08-08 05:50:00+00:00,279.2947,17.97,13.05,47.84626,-54.09684
2018-08-08 06:00:00+00:00,282.673,18.0,12.97,47.84626,-54.09684
2018-08-08 06:10:00+00:00,284.2681,17.9,12.89,47.84626,-54.09684
2018-08-08 06:20:00+00:00,291.1914,17.9,12.97,47.84626,-54.09684
2018-08-08 06:30:00+00:00,297.1198,17.95,12.97,47.84626,-54.09684
2018-08-08 06:40:00+00:00,299.8381,17.9,12.97,47.84626,-54.09684
2018-08-08 06:50:00+00:00,300.943,17.9,12.97,47.84626,-54.09684
2018-08-08 07:00:00+00:00,307.913,17.97,12.97,47.84626,-54.09684
2018-08-08 07:10:00+00:00,311.513,17.99,12.89,47.84626,-54.09684
2018-08-08 07:20:00+00:00,313.0164,18.0,12.97,47.84626,-54.09684
2018-08-08 07:30:00+00:00,315.3929,17.9,12.97,47.84626,-54.09684
2018-08-08 07:40:00+00:00,320.2012,17.95,12.97,47.84626,-54.09684
2018-08-08 07:50:00+00:00,320.623,17.8,12.97,47.84626,-54.09684
2018-08-08 08:00:00+00:00,322.0297,17.7,12.89,47.84626,-54.09684
2018-08-08 08:10:00+00:00,324.543,17.69,12.81,47.84626,-54.09684
2018-08-08 08:20:00+00:00,323.423,17.93,12.89,47.84626,-54.09684
2018-08-08 08:30:00+00:00,322.9881,17.8,12.97,47.84626,-54.09684
2018-08-08 08:40:00+00:00,326.2646,17.53,12.97,47.84626,-54.09684
2018-08-08 08:50:00+00:00,326.2946,17.87,12.97,47.84626,-54.09684
2018-08-08 09:00:00+00:00,324.7278,18.1,12.89,47.84626,-54.09684
2018-08-08 09:10:00+00:00,325.4797,17.7,12.81,47.84626,-54.09684
2018-08-08 09:20:00+00:00,326.7813,17.69,12.89,47.84626,-54.09684
2018-08-08 09:30:00+00:00,322.1497,17.9,12.97,47.84626,-54.09684
2018-08-08 09:40:00+00:00,317.3596,17.99,12.97,47.84626,-54.09684
2018-08-08 09:50:00+00:00,315.2881,17.9,12.97,47.84626,-54.09684
2018-08-08 10:00:00+00:00,309.9163,17.95,12.97,47.84626,-54.09684
2018-08-08 10:10:00+00:00,301.6248,18.01,12.97,47.84626,-54.09684
2018-08-08 10:20:00+00:00,296.6147,18.09,13.05,47.84626,-54.09684
2018-08-08 10:30:00+00:00,296.1547,18.1,13.05,47.84626,-54.09684
2018-08-08 10:40:00+00:00,290.0464,18.13,13.05,47.84626,-54.09684
2018-08-08 10:50:00+00:00,279.2497,18.2,13.13,47.84626,-54.09684
2018-08-08 11:00:00+00:00,273.1481,18.2,13.05,47.84626,-54.09684
2018-08-08 11:10:00+00:00,270.3864,18.2,13.05,47.84626,-54.09684
2018-08-08 11:20:00+00:00,263.8364,18.2,13.13,47.84626,-54.09684
2018-08-08 11:30:00+00:00,257.678,18.2,13.13,47.84626,-54.09684
2018-08-08 11:40:00+00:00,252.8798,18.2,13.21,47.84626,-54.09684
2018-08-08 11:50:00+00:00,246.1848,18.2,13.21,47.84626,-54.09684
2018-08-08 12:00:00+00:00,238.9148,18.2,13.21,47.84626,-54.09684
2018-08-08 12:10:00+00:00,235.4231,18.2,13.05,47.84626,-54.09684
2018-08-08 12:20:00+00:00,230.9781,18.2,13.13,47.84626,-54.09684
2018-08-08 12:30:00+00:00,224.6398,18.23,13.13,47.84626,-54.09684
2018-08-08 12:40:00+00:00,220.0064,18.28,13.29,47.84626,-54.09684
2018-08-08 12:50:00+00:00,219.0898,18.28,13.37,47.84626,-54.09684
2018-08-08 13:00:00+00:00,215.7348,18.2,13.44,47.84626,-54.09684
2018-08-08 13:10:00+00:00,209.9247,18.19,13.37,47.84626,-54.09684
2018-08-08 13:20:00+00:00,208.7115,18.2,13.44,47.84626,-54.09684
2018-08-08 13:30:00+00:00,209.4899,18.22,13.53,47.84626,-54.09684
2018-08-08 13:40:00+00:00,207.3798,18.27,13.6,47.84626,-54.09684
2018-08-08 13:50:00+00:00,204.6664,18.3,13.6,47.84626,-54.09684
2018-08-08 14:00:00+00:00,206.9282,18.3,13.6,47.84626,-54.09684
2018-08-08 14:10:00+00:00,207.8314,18.3,13.53,47.84626,-54.09684
2018-08-08 14:20:00+00:00,203.6848,18.35,13.6,47.84626,-54.09684
2018-08-08 14:30:00+00:00,202.2348,18.39,13.6,47.84626,-54.09684
2018-08-08 14:40:00+00:00,206.6381,18.39,13.6,47.84626,-54.09684
2018-08-08 14:50:00+00:00,206.9147,18.39,13.68,47.84626,-54.09684
2018-08-08 15:00:00+00:00,202.7681,18.4,13.6,47.84626,-54.09684
2018-08-08 15:10:00+00:00,203.6748,18.4,13.44,47.84626,-54.09684
2018-08-08 15:20:00+00:00,206.9898,18.4,13.53,47.84626,-54.09684
2018-08-08 15:30:00+00:00,206.9181,18.4,13.53,47.84626,-54.09684
2018-08-08 15:40:00+00:00,208.2181,18.41,13.53,47.84626,-54.09684
2018-08-08 15:50:00+00:00,214.4664,18.4,13.53,47.84626,-54.09684
2018-08-08 16:00:00+00:00,220.7631,18.4,13.53,47.84626,-54.09684
2018-08-08 16:10:00+00:00,223.1031,18.4,13.44,47.84626,-54.09684
2018-08-08 16:20:00+00:00,228.3847,18.4,13.6,47.84626,-54.09684
2018-08-08 16:30:00+00:00,233.7531,18.4,13.6,47.84626,-54.09684
2018-08-08 16:40:00+00:00,236.6247,18.3,13.6,47.84626,-54.09684
2018-08-08 16:50:00+00:00,239.0164,18.31,13.6,47.84626,-54.09684
2018-08-08 17:00:00+00:00,242.6798,18.35,13.6,47.84626,-54.09684
2018-08-08 17:10:00+00:00,247.7581,18.3,13.53,47.84626,-54.09684
2018-08-08 17:20:00+00:00,252.1248,18.3,13.6,47.84626,-54.09684
2018-08-08 17:30:00+00:00,258.4064,18.29,13.68,47.84626,-54.09684
2018-08-08 17:40:00+00:00,266.9331,18.2,13.84,47.84626,-54.09684
2018-08-08 17:50:00+00:00,273.5297,18.2,13.92,47.84626,-54.09684
2018-08-08 18:00:00+00:00,279.7147,18.2,14.08,47.84626,-54.09684
2018-08-08 18:10:00+00:00,287.9697,18.2,14.0,47.84626,-54.09684
2018-08-08 18:20:00+00:00,293.9713,18.2,14.16,47.84626,-54.09684
2018-08-08 18:30:00+00:00,299.838,18.2,14.16,47.84626,-54.09684
2018-08-08 18:40:00+00:00,308.7729,18.2,14.24,47.84626,-54.09684
2018-08-08 18:50:00+00:00,318.6863,18.1,14.24,47.84626,-54.09684
2018-08-08 19:00:00+00:00,324.9147,18.1,14.08,47.84626,-54.09684
2018-08-08 19:10:00+00:00,330.0563,18.18,14.0,47.84626,-54.09684
2018-08-08 19:20:00+00:00,335.3729,18.2,14.0,47.84626,-54.09684
2018-08-08 19:30:00+00:00,341.5363,18.2,13.92,47.84626,-54.09684
2018-08-08 19:40:00+00:00,343.8013,18.2,13.84,47.84626,-54.09684
2018-08-08 19:50:00+00:00,348.7679,18.18,13.76,47.84626,-54.09684
2018-08-08 20:00:00+00:00,353.0864,18.16,13.68,47.84626,-54.09684
2018-08-08 20:10:00+00:00,355.6379,18.19,13.6,47.84626,-54.09684
2018-08-08 20:20:00+00:00,356.853,18.19,13.53,47.84626,-54.09684
2018-08-08 20:30:00+00:00,359.6196,18.09,13.53,47.84626,-54.09684
2018-08-08 20:40:00+00:00,360.6379,18.0,13.53,47.84626,-54.09684
2018-08-08 20:50:00+00:00,358.5378,18.0,13.44,47.84626,-54.09684
2018-08-08 21:00:00+00:00,360.6263,18.0,13.37,47.84626,-54.09684
2018-08-08 21:10:00+00:00,363.7795,18.0,13.29,47.84626,-54.09684
2018-08-08 21:20:00+00:00,360.6929,18.0,13.29,47.84626,-54.09684
2018-08-08 21:30:00+00:00,357.4779,18.0,13.29,47.84626,-54.09684
2018-08-08 21:40:00+00:00,359.7813,17.6,13.29,47.84626,-54.09684
2018-08-08 21:50:00+00:00,360.9896,17.54,13.21,47.84626,-54.09684
2018-08-08 22:00:00+00:00,357.4729,17.78,13.21,47.84626,-54.09684
2018-08-08 22:10:00+00:00,355.3046,17.8,13.05,47.84626,-54.09684
2018-08-08 22:20:00+00:00,355.5696,17.69,13.13,47.84626,-54.09684
2018-08-08 22:30:00+00:00,351.7863,17.67,13.13,47.84626,-54.09684
2018-08-08 22:40:00+00:00,343.0113,17.89,13.13,47.84626,-54.09684
2018-08-08 22:50:00+00:00,337.8263,18.0,13.13,47.84626,-54.09684
2018-08-08 23:00:00+00:00,331.3846,18.0,13.13,47.84626,-54.09684
2018-08-08 23:10:00+00:00,322.233,18.08,13.05,47.84626,-54.09684
2018-08-08 23:20:00+00:00,310.058,18.17,13.05,47.84626,-54.09684
2018-08-08 23:30:00+00:00,304.8397,18.2,13.13,47.84626,-54.09684
2018-08-08 23:40:00+00:00,299.8898,18.28,13.13,47.84626,-54.09684
2018-08-08 23:50:00+00:00,289.3147,18.33,13.13,47.84626,-54.09684
